Airfield :
LOGIN :

Register | Disclaimer

   EN    FR    IT 

 










Legend :    VFR   Marginal VFR   IFR   Intensive IFR   Very Intensive IFR
Visi :
Ceiling :
>= 8 km
>= 3000ft
5 to 8 km
1000 to 3000 ft
1500m to 5 km
500 to 1000 ft
800 to 1500m
200 to 500 ft
< 800m
< 200 ft
Symbols :   Thunderstorms  Fog  Heavy snow  Heavy precipitations  Wind > 20 kt
SIGMETs :     Misc.  Thunderstorms  Icing  Turbulence  Mountain Waves  Volcanic Ashes







- Airport Elevation : 459 ft
- IATA code : CER
- Download approach charts


LFRC - Cherbourg / Maupertus

CURRENT METAR :
  • 220030Z AUTO 22007KT CAVOK 13/12 Q1007

EXPIRED METARs :
  • 220000Z AUTO 22008KT CAVOK 13/12 Q1007
  • 212330Z AUTO 22005KT CAVOK 13/12 Q1007
  • 212300Z AUTO 23008KT 9999 FEW011 SCT046 BKN058 13/13 Q1007
  • 212230Z AUTO 21008KT 9999 SCT016 BKN022 BKN030 14/13 Q1006
  • 212200Z AUTO 19005KT 9999 FEW006 OVC036 14/13 Q1006

Expired Forecast.
No reported NOTAMs for that airfield.



MET'MAP, your aeronautical weather chart ! - Copyright ORBIFLY December 2007 - Disclaimer

ORBIFLY MET'MAP TEAM :

Programming & Development : Alexandra Zaïnal
Concept & Development : Baudouin d'Aumeries
Co-Development & Prog : Marc-Olivier Méhu
Technical & hardware support : Manuel Goepfert

Contact : metmap@orbifly.com




SOURCES & CREDITS :

   NOAA